Flag for Netherlands Weather past 2 weeks in Almere, Netherlands

Now
59 °F

Passing clouds.


Feels Like: 57 °F
Forecast: 47 / 59 °F
Wind: 12 mph from West

Location: Amsterdam Schiphol Airport

Current Time: May 22, 2015 at 7:40:08 PM

Latest Report: May 22, 2015 at 6:55 PM


Visibility: N/A

Pressure: 30.21 "Hg

Humidity: 72%

Dew point: 50 °F

Location of AlmereLocation

Historic Weather in Almere — Graph

°F

Almere temperature yesterday

Maximum temperature yesterday: 61 °F (at 12:25 PM)
Minimum temperature yesterday: 43 °F (at 5:55 AM)
Average temperature yesterday: 53 °F

Past Weeks' High & Low Weather Summary

 TemperatureHumidityPressure
High75 °F (May 11, 1:55 PM)100% (May 10, 6:55 AM)30.33 "Hg (May 10, 6:55 AM)
Low41 °F (May 10, 5:55 AM)40% (May 8, 4:25 PM)29.56 "Hg (May 19, 4:25 AM)
Average54 °F73%30.04 "Hg
* Reported May 7 6:25 PM — May 22 6:25 PM, Almere, Weather by CustomWeather, © 2015

Note: Actual official high and low records may vary slightly from our data, if they occured in-between our weather recording intervals... More about our weather records

Advertising

Almere weather history for previous 24 hours

 ConditionsComfort  
Time TempWeatherWind HumidityBarometerVisibility
6:25 PM
Fri, May 22
59 °FPassing clouds.13 mph68%30.21 "HgN/A
5:55 PM59 °FPassing clouds.13 mph72%30.24 "HgN/A
5:25 PM61 °FPassing clouds.14 mph68%30.24 "HgN/A
4:55 PM63 °FPassing clouds.14 mph64%30.24 "HgN/A
4:25 PM63 °FPassing clouds.15 mph59%30.24 "HgN/A
3:55 PM64 °FPassing clouds.16 mph60%30.24 "HgN/A
3:25 PM64 °FPassing clouds.16 mph60%30.24 "HgN/A
2:55 PM64 °FPassing clouds.16 mph60%30.24 "HgN/A
2:25 PM66 °FPassing clouds.15 mph56%30.24 "HgN/A
1:55 PM66 °FPassing clouds.13 mph64%30.24 "HgN/A
1:25 PM64 °FPassing clouds.9 mph64%30.24 "HgN/A
12:55 PM64 °FPassing clouds.9 mph68%30.24 "HgN/A
12:25 PM63 °FPassing clouds.10 mph73%30.27 "HgN/A
11:55 AM63 °FPassing clouds.10 mph73%30.27 "HgN/A
11:25 AM63 °FPassing clouds.9 mph73%30.27 "HgN/A
10:55 AM61 °FPassing clouds.9 mph72%30.27 "HgN/A
10:25 AM59 °FPassing clouds.10 mph77%30.27 "HgN/A
9:55 AM59 °FPassing clouds.9 mph77%30.27 "HgN/A
9:25 AM57 °FPassing clouds.8 mph82%30.27 "HgN/A
8:55 AM57 °FSunny.8 mph82%30.27 "Hg10 mi
8:25 AM55 °FPassing clouds.7 mph82%30.27 "HgN/A
7:55 AM55 °FSunny.8 mph82%30.27 "Hg10 mi
7:25 AM55 °FPassing clouds.7 mph82%30.27 "HgN/A
6:55 AM54 °FSunny.8 mph82%30.27 "Hg10 mi
6:25 AM54 °FClear.7 mph82%30.27 "Hg10 mi
5:55 AM54 °FClear.7 mph82%30.27 "Hg10 mi
5:25 AM54 °FClear.7 mph82%30.27 "Hg10 mi
4:55 AM54 °FClear.7 mph82%30.27 "Hg10 mi
4:25 AM54 °FClear.6 mph82%30.27 "Hg10 mi
3:55 AM54 °FClear.8 mph77%30.27 "Hg10 mi
3:25 AM54 °FClear.8 mph77%30.30 "Hg10 mi
2:55 AM54 °FPassing clouds.8 mph77%30.30 "HgN/A
2:25 AM54 °FPassing clouds.6 mph77%30.30 "HgN/A
1:55 AM54 °FPassing clouds.7 mph77%30.30 "HgN/A
1:25 AM55 °FPassing clouds.7 mph72%30.30 "HgN/A
12:55 AM54 °FPassing clouds.7 mph77%30.33 "HgN/A
12:25 AM54 °FPassing clouds.7 mph72%30.33 "HgN/A
11:55 PM
Thu, May 21
54 °FPassing clouds.7 mph72%30.33 "HgN/A
11:25 PM55 °FPassing clouds.8 mph67%30.33 "HgN/A
10:55 PM55 °FPassing clouds.8 mph67%30.33 "HgN/A
10:25 PM55 °FPassing clouds.7 mph67%30.33 "HgN/A
9:55 PM55 °FSunny.9 mph72%30.30 "Hg10 mi
9:25 PM55 °FPassing clouds.8 mph67%30.30 "HgN/A
8:55 PM55 °FSunny.8 mph67%30.30 "Hg10 mi
8:25 PM55 °FSunny.10 mph72%30.30 "Hg10 mi
7:55 PM57 °FPassing clouds.9 mph63%30.30 "HgN/A
7:25 PM57 °FPassing clouds.8 mph67%30.30 "HgN/A
Weather by CustomWeather, © 2015

See weather overviewHow to use our weather pages